Flag for U.S.A. Weather past 2 weeks in San Bernardino, California, U.S.A.

Now
88 °F

Sunny.


Feels Like: 88 °F
Forecast: 65 / 95 °F
Wind: 6 mph from North

Location: Riverside Municipal Airport

Current Time: Aug 1, 2015 at 2:01:40 PM

Latest Report: Aug 1, 2015 at 12:53 PM


Visibility: 10 mi

Pressure: 29.88 "Hg

Humidity: 42%

Dew point: 62 °F

Location of San BernardinoLocation

Historic Weather in San Bernardino — Graph

°F

San Bernardino temperature yesterday

Maximum temperature yesterday: 95 °F (at 2:53 PM)
Minimum temperature yesterday: 70 °F (at 5:53 AM)
Average temperature yesterday: 81 °F

Past Weeks' High & Low Weather Summary

 TemperatureHumidityPressure
High95 °F (Jul 17, 2:53 PM)93% (Jul 18, 4:53 PM)30.05 "Hg (Jul 18, 4:53 PM)
Low65 °F (Jul 27, 1:53 AM)19% (Jul 25, 3:53 PM)29.73 "Hg (Jul 17, 4:53 PM)
Average77 °F63%29.90 "Hg
* Reported Jul 17 11:53 AM — Aug 1 11:53 AM, San Bernardino, Weather by CustomWeather, © 2015

Note: Actual official high and low records may vary slightly from our data, if they occured in-between our weather recording intervals... More about our weather records

Advertising

San Bernardino weather history for previous 24 hours

 ConditionsComfort  
Time TempWeatherWind HumidityBarometerVisibility
11:53 AM
Sat, Aug 1
83 °FSunny.7 mph46%29.91 "Hg10 mi
10:53 AM79 °FSunny.5 mph58%29.92 "Hg8 mi
9:53 AM74 °FSunny.6 mph71%29.93 "Hg6 mi
8:53 AM70 °FPartly sunny.No wind81%29.95 "Hg5 mi
7:53 AM68 °FFog.5 mph87%29.96 "Hg4 mi
7:02 AM67 °FFog.5 mph90%30.00 "Hg3 mi
6:53 AM67 °FFog.5 mph90%29.94 "Hg4 mi
5:53 AM68 °FClear.3 mph87%29.93 "Hg8 mi
4:53 AM69 °FClear.3 mph84%29.91 "Hg9 mi
3:53 AM70 °FClear.5 mph81%29.91 "Hg10 mi
2:53 AM72 °FClear.No wind76%29.92 "Hg10 mi
1:53 AM72 °FClear.No wind76%29.92 "Hg10 mi
12:53 AM74 °FClear.3 mph71%29.93 "Hg10 mi
11:53 PM
Fri, Jul 31
75 °FClear.5 mph69%29.92 "Hg10 mi
10:53 PM77 °FClear.5 mph64%29.91 "Hg10 mi
9:53 PM79 °FClear.6 mph60%29.92 "Hg10 mi
8:53 PM81 °FClear.9 mph56%29.91 "Hg10 mi
7:53 PM84 °FSunny.8 mph51%29.89 "Hg10 mi
6:53 PM87 °FSunny.9 mph45%29.88 "Hg10 mi
5:53 PM91 °FPartly sunny.9 mph37%29.87 "Hg10 mi
4:53 PM93 °FPartly sunny.12 mph36%29.88 "Hg10 mi
3:53 PM94 °FPartly sunny.10 mph35%29.89 "Hg10 mi
2:53 PM95 °FPartly sunny.6 mph34%29.90 "Hg10 mi
Weather by CustomWeather, © 2015

See weather overviewHow to use our weather pages